Total_Precipitation_Accumulation
0.56 0.56 0.57 0.53 0.51 0.53 0.59 0.75 0.98 0.82 0.41 0.27 0.32 0.33 0.34 0.39 0.44 0.47 0.47 0.57 0.66 0.71 0.76 0.83 0.93 1.03 1.18 1.48 2.05 2.81 3.42 3.81 3.76 3.46 3.20 3.16 3.43 3.82
0.69 0.68 0.66 0.64 0.64 0.63 0.65 0.69 0.85 1.04 0.78 0.33 0.34 0.39 0.44 0.46 0.51 0.51 0.50 0.59 0.65 0.74 0.82 0.85 0.94 1.04 1.14 1.29 1.52 2.03 2.71 3.25 3.64 3.78 3.71 3.61 3.67 3.92
0.76 0.78 0.78 0.77 0.80 0.79 0.79 0.79 0.84 1.02 1.04 0.49 0.33 0.39 0.52 0.57 0.56 0.54 0.54 0.57 0.58 0.67 0.79 0.85 0.93 1.04 1.11 1.21 1.35 1.61 2.13 2.68 3.16 3.64 3.96 3.98 3.89 3.88
0.78 0.84 0.85 0.85 0.88 0.89 0.94 0.93 0.90 0.94 1.05 0.77 0.45 0.43 0.52 0.58 0.64 0.64 0.58 0.57 0.58 0.62 0.74 0.85 0.91 0.98 1.04 1.12 1.24 1.42 1.72 2.22 2.63 2.97 3.44 3.69 3.73 3.88
0.73 0.80 0.85 0.92 0.97 0.95 0.96 0.96 0.91 0.85 0.89 0.88 0.61 0.48 0.52 0.58 0.65 0.69 0.67 0.67 0.64 0.65 0.69 0.78 0.88 0.93 1.01 1.08 1.15 1.24 1.37 1.62 2.05 2.56 3.05 3.44 3.49 3.49
0.70 0.75 0.82 0.94 1.03 1.11 1.19 1.10 1.01 1.05 1.05 1.04 0.85 0.66 0.61 0.62 0.78 0.83 0.81 0.77 0.74 0.67 0.69 0.71 0.81 0.92 0.95 0.95 0.98 1.05 1.18 1.43 1.80 2.27 2.66 3.08 3.33 3.29
0.75 0.75 0.79 0.95 1.17 1.38 1.51 1.46 1.42 1.46 1.40 1.35 1.17 0.95 0.80 0.81 0.89 0.88 0.93 0.84 0.83 0.80 0.76 0.68 0.68 0.70 0.76 0.85 0.92 0.96 1.06 1.21 1.43 1.77 2.22 2.61 3.00 3.26
0.82 0.76 0.74 0.82 0.95 1.13 1.36 1.44 1.53 1.65 1.70 1.65 1.51 1.29 0.99 0.88 0.93 1.10 1.22 1.23 1.10 0.82 0.80 0.77 0.77 0.82 0.77 0.76 0.87 0.93 0.98 1.09 1.29 1.51 1.81 2.12 2.46 2.90
0.74 0.70 0.70 0.69 0.75 0.73 0.86 0.96 1.06 1.24 1.48 1.66 1.74 1.42 1.13 1.02 1.19 1.42 1.46 1.44 1.20 1.00 1.07 1.14 0.95 0.92 0.85 0.91 1.03 0.97 1.00 1.10 1.21 1.35 1.56 1.84 2.09 2.43
0.67 0.69 0.70 0.67 0.67 0.75 0.83 0.87 0.81 0.84 1.06 1.31 1.47 1.33 1.23 1.25 1.45 1.73 1.87 1.92 1.59 1.25 1.27 1.48 1.14 0.99 0.91 0.93 1.09 1.04 1.02 1.09 1.17 1.28 1.41 1.55 1.77 2.08
0.66 0.79 0.84 0.75 0.79 0.97 1.10 1.07 0.88 0.75 0.82 1.14 1.41 1.46 1.50 1.70 1.93 2.30 2.57 2.65 2.33 1.70 1.45 1.59 1.37 1.15 1.05 0.99 1.06 1.14 1.11 1.10 1.13 1.23 1.37 1.48 1.61 1.85
0.68 0.81 1.07 1.04 1.02 1.10 1.17 1.20 1.14 0.87 0.78 0.84 0.94 1.05 1.10 1.18 1.55 1.92 2.19 2.44 2.40 2.13 1.63 1.60 1.58 1.51 1.56 1.20 1.00 0.95 1.00 1.14 1.19 1.22 1.33 1.46 1.62 1.65
0.81 0.87 1.00 1.09 1.09 1.11 1.18 1.16 1.20 1.14 1.10 1.08 1.02 0.96 0.99 1.11 1.28 1.54 1.80 2.07 2.28 2.14 1.70 1.79 1.92 1.79 1.75 1.45 1.12 1.00 0.92 0.91 0.98 1.13 1.30 1.47 1.62 1.69
0.90 0.82 0.90 1.03 1.09 1.12 1.08 1.10 1.18 1.23 1.17 1.14 1.08 1.00 0.97 1.03 1.11 1.26 1.51 1.68 1.82 1.87 1.71 1.87 2.15 1.97 1.87 1.59 1.26 1.16 1.07 1.00 0.95 1.00 1.11 1.43 1.60 1.71
0.96 1.10 1.07 1.03 0.99 0.95 0.94 0.99 1.01 0.99 1.04 1.02 0.92 0.83 0.79 0.84 0.95 1.12 1.30 1.48 1.62 1.70 1.74 1.75 1.87 1.91 2.02 1.88 1.40 1.20 1.22 1.22 1.11 1.07 1.12 1.22 1.34 1.50
0.96 1.04 1.04 0.94 0.84 0.80 0.82 0.83 0.83 0.90 1.00 1.00 0.88 0.78 0.74 0.82 0.93 1.03 1.20 1.35 1.59 1.64 1.60 1.64 1.75 2.02 2.20 1.88 1.62 1.40 1.24 1.35 1.31 1.22 1.20 1.23 1.27 1.31
1.17 1.16 1.05 0.92 0.83 0.75 0.71 0.68 0.69 0.80 0.92 0.91 0.92 0.91 0.87 0.90 0.93 0.97 1.13 1.29 1.48 1.47 1.48 1.60 1.75 1.95 2.15 2.14 2.03 1.65 1.38 1.32 1.35 1.37 1.33 1.36 1.36 1.32
1.17 1.10 0.93 0.81 0.76 0.72 0.71 0.71 0.69 0.71 0.75 0.81 0.88 0.91 0.93 0.96 0.96 0.97 1.11 1.28 1.35 1.32 1.36 1.49 1.77 2.17 2.44 2.47 2.16 1.83 1.56 1.45 1.51 1.56 1.45 1.40 1.38 1.28
0.97 0.86 0.77 0.75 0.72 0.70 0.70 0.70 0.68 0.64 0.70 0.80 0.88 0.92 0.95 0.99 1.01 1.01 1.06 1.17 1.23 1.24 1.31 1.43 1.71 2.14 2.36 2.24 2.13 1.87 1.66 1.52 1.59 1.77 1.67 1.40 1.28 1.20
0.76 0.76 0.74 0.71 0.70 0.70 0.70 0.71 0.69 0.68 0.71 0.77 0.81 0.85 0.90 0.99 1.00 0.95 0.97 1.10 1.19 1.25 1.33 1.43 1.64 1.90 2.11 1.89 1.84 1.92 1.81 1.69 1.69 1.83 1.76 1.50 1.37 1.40
0.68 0.69 0.67 0.71 0.73 0.71 0.69 0.69 0.71 0.73 0.71 0.73 0.75 0.76 0.80 0.91 0.94 0.88 0.91 1.02 1.22 1.33 1.35 1.35 1.48 1.72 1.98 2.08 2.07 1.97 1.95 1.91 1.79 1.79 1.73 1.67 1.62 1.59
0.66 0.69 0.67 0.68 0.72 0.74 0.73 0.71 0.73 0.71 0.70 0.70 0.71 0.72 0.76 0.86 0.90 0.87 0.93 1.03 1.12 1.19 1.23 1.28 1.41 1.76 2.16 2.29 2.10 1.90 1.91 2.00 2.08 1.97 1.84 1.69 1.71 1.69
0.74 0.72 0.67 0.63 0.65 0.69 0.73 0.72 0.72 0.68 0.66 0.71 0.73 0.73 0.77 0.85 0.85 0.90 0.94 0.99 1.08 1.13 1.19 1.34 1.52 1.77 2.02 2.01 1.98 1.89 1.78 1.80 1.89 2.00 2.18 1.92 1.50 1.27